Location: Gleizolles
(44.4833°N, 6.7667°E)
Time: 03:22:11
(UTC+00:00)

ARGOS Delta rocket - Pass Details

Date: 09 April 2020
Orbit: 634 x 839 km, 96.4° (Epoch: 29 May)

Event Time Altitude Azimuth Distance (km) Brightness Sun altitude
Rises 18:43:40 0° 168° (SSE) 3,286 7.0 -6.5°
Reaches altitude 10° 18:45:58 10° 168° (SSE) 2,384 6.3 -6.9°
Maximum altitude 18:51:18 89° 259° (W) 835 4.2 -7.8°
Drops below altitude 10° 18:56:50 10° 349° (N) 2,463 7.1 -8.7°
Sets 18:59:14 0° 350° (N) 3,404 7.8 -9.1°
